Weather History for Jackson, TN

Change the Weather History Date:

Saturday, January 11, 2014

  Actual Average Record
Temperature  
Mean Temperature 46 °F 38 °F  
Max Temperature 56 °F 48 °F 72 °F (1995)
Min Temperature 35 °F 28 °F -5 °F (1962)
Degree Days  
Heating Degree Days 19 27  
Month to date heating degree days 359 297  
Since 1 July heating degree days 1916 1715  
Cooling Degree Days 0 0  
Month to date cooling degree days 0 0  
Year to date cooling degree days 0 0  
Moisture  
Dew Point 41 °F    
Average Humidity 76    
Maximum Humidity 93    
Minimum Humidity 59    
Precipitation  
Precipitation 0.39 in 0.12 in 0.99 in (1989)
Month to date precipitation 1.96 1.44  
Year to date precipitation 1.96 1.44  
Snow  
Snow 0.00 in 0.10 in T in (2011)
Month to date snowfall T 0.8  
Since 1 July snowfall T 1.1  
Snow Depth 0.00 in    
Sea Level Pressure  
Sea Level Pressure 29.82 in    
Wind  
Wind Speed 10 mph (WSW)    
Max Wind Speed 20 mph    
Max Gust Speed 30 mph    
Visibility 10 miles    
Events Rain    
T = Trace of Precipitation, MM = Missing Value Source: NWS Daily Summary

Daily Weather History Graph

Daily Weather History Graph

Search for Another Location

Airport:

Trip Planner

Search our weather history database for the weather conditions in past years. The results will help you decide how hot, cold, wet, or windy it might be!

Date:

Astronomy

Jan. 11, 2014 Rise Set
Actual Time 7:05 AM CST 5:02 PM CST
Civil Twilight 6:37 AM CST 5:30 PM CST
Nautical Twilight 6:05 AM CST 6:01 PM CST
Astronomical Twilight 5:35 AM CST 6:32 PM CST
Moon 1:44 PM CST (1/11) 3:11 AM CST (1/11)
Length of Visible Light 10h 52m
Length of Day
9h 56m
Waxing Gibbous, 83% of the Moon is Illuminated
Jan 11
Waxing Gibbous
Jan 15
Full
Jan 23
Last Quarter
Jan 30
New
Feb 6
First Quarter

Hourly Weather History & Observations

Time (CST) Temp. Windchill Dew Point Humidity Pressure Visibility Wind Dir Wind Speed Gust Speed Precip Events Conditions
12:53 AM 55.9 °F - 53.1 °F 90% 29.68 in 5.0 mi SSW 13.8 mph - 0.23 in Rain Rain
1:42 AM 55.4 °F - 53.6 °F 94% 29.68 in 9.0 mi WSW 13.8 mph 21.9 mph 0.17 in Rain Light Rain
1:53 AM 55.9 °F - 53.1 °F 90% 29.68 in 10.0 mi SW 8.1 mph - 0.17 in   Overcast
2:53 AM 54.0 °F - 51.1 °F 90% 29.68 in 10.0 mi SW 6.9 mph - N/A   Overcast
3:53 AM 54.0 °F - 50.0 °F 86% 29.69 in 10.0 mi West 13.8 mph - N/A   Overcast
4:05 AM 53.6 °F - 48.2 °F 82% 29.70 in 10.0 mi West 18.4 mph 23.0 mph N/A   Mostly Cloudy
4:53 AM 51.1 °F - 46.0 °F 83% 29.72 in 10.0 mi West 8.1 mph - N/A   Clear
5:53 AM 46.9 °F - 43.0 °F 86% 29.73 in 10.0 mi WSW 6.9 mph - N/A   Clear
6:53 AM 45.0 °F 41.2 °F 41.0 °F 86% 29.74 in 10.0 mi West 6.9 mph - N/A   Clear
7:53 AM 45.0 °F 42.6 °F 41.0 °F 86% 29.78 in 10.0 mi SW 4.6 mph - N/A   Clear
8:53 AM 48.9 °F - 43.0 °F 80% 29.81 in 10.0 mi West 12.7 mph 20.7 mph N/A   Clear
9:53 AM 50.0 °F - 39.0 °F 66% 29.83 in 10.0 mi WNW 15.0 mph 20.7 mph N/A   Clear
10:53 AM 50.0 °F - 37.0 °F 61% 29.83 in 10.0 mi WNW 17.3 mph 23.0 mph N/A   Clear
11:53 AM 51.1 °F - 37.9 °F 61% 29.81 in 10.0 mi West 16.1 mph - N/A   Scattered Clouds
12:53 PM 50.0 °F - 37.9 °F 63% 29.81 in 10.0 mi West 15.0 mph - N/A   Partly Cloudy
1:53 PM 50.0 °F - 37.0 °F 61% 29.83 in 10.0 mi West 13.8 mph - N/A   Scattered Clouds
2:53 PM 52.0 °F - 39.9 °F 63% 29.86 in 10.0 mi WNW 13.8 mph 18.4 mph N/A   Mostly Cloudy
3:08 PM 50.0 °F - 39.2 °F 66% 29.86 in 10.0 mi West 13.8 mph - N/A   Mostly Cloudy
3:53 PM 48.9 °F - 37.9 °F 66% 29.87 in 10.0 mi West 11.5 mph - N/A   Scattered Clouds
4:53 PM 46.9 °F - 36.0 °F 66% 29.89 in 10.0 mi West 6.9 mph - N/A   Clear
5:53 PM 42.1 °F 39.2 °F 35.1 °F 76% 29.91 in 10.0 mi West 4.6 mph - N/A   Clear
6:53 PM 37.9 °F 35.5 °F 33.1 °F 83% 29.94 in 10.0 mi SW 3.5 mph - N/A   Clear
7:53 PM 35.1 °F 30.1 °F 32.0 °F 89% 29.96 in 10.0 mi SSW 5.8 mph - N/A   Clear
8:53 PM 39.0 °F 34.0 °F 34.0 °F 82% 29.97 in 10.0 mi SW 6.9 mph - N/A   Clear
9:53 PM 39.9 °F 35.1 °F 35.1 °F 83% 29.99 in 10.0 mi SW 6.9 mph - N/A   Partly Cloudy
10:53 PM 41.0 °F 35.8 °F 36.0 °F 82% 30.00 in 10.0 mi SW 8.1 mph - N/A   Partly Cloudy
11:53 PM 42.1 °F 37.1 °F 35.1 °F 76% 30.00 in 10.0 mi West 8.1 mph - N/A   Clear